• In Russia
  • List of Countries
  • For 7 days
  • Water Temperature
  • Satellite Maps
  • Weather Map
  • Weather Widgets
  • user-avatar
    Login

    Hourly Weather Hobart

    Today, 20 February, Monday

    Time Temperature Precipitation Wind Pressure Humidity
    00:00 +6°C° 0 mm 1 mps 741 mmHg 95%
    01:00 +6°C° 0 mm 1 mps 741 mmHg 95%
    02:00 +6°C° 0 mm 1 mps 741 mmHg 95%
    03:00 +6°C° 0 mm 1 mps 741 mmHg 95%
    04:00 +5°C° 0 mm 2 mps 741 mmHg 95%
    05:00 +6°C° 0 mm 2 mps 741 mmHg 92%
    06:00 +8°C° 0 mm 2 mps 741 mmHg 90%
    07:00 +9°C° 0 mm 2 mps 741 mmHg 87%
    08:00 +11°C° 0.1 mm 3 mps 742 mmHg 79%
    09:00 +13°C° 0.1 mm 3 mps 742 mmHg 70%
    10:00 +16°C° 0.1 mm 3 mps 742 mmHg 62%
    11:00 +17°C° 0.3 mm 4 mps 742 mmHg 60%
    12:00 +18°C° 0.3 mm 4 mps 742 mmHg 59%
    13:00 +17°C° 0.3 mm 5 mps 742 mmHg 58%
    14:00 +17°C° 0.3 mm 5 mps 742 mmHg 63%
    15:00 +16°C° 0.3 mm 6 mps 742 mmHg 67%
    16:00 +16°C° 0.3 mm 6 mps 742 mmHg 72%
    17:00 +15°C° 0.1 mm 6 mps 742 mmHg 79%
    18:00 +13°C° 0.1 mm 6 mps 743 mmHg 86%
    19:00 +12°C° 0.1 mm 5 mps 744 mmHg 92%
    20:00 +10°C° 0 mm 5 mps 744 mmHg 94%
    21:00 +10°C° 0 mm 5 mps 744 mmHg 95%
    22:00 +9°C° 0 mm 5 mps 745 mmHg 96%
    23:00 +9°C° 0 mm 5 mps 745 mmHg 97%

    Tomorrow, 21 February, Tuesday

    Time Temperature Precipitation Wind Pressure Humidity
    00:00 +8°C° 0 mm 5 mps 746 mmHg 97%
    01:00 +8°C° 0 mm 5 mps 746 mmHg 97%
    02:00 +8°C° 0 mm 5 mps 746 mmHg 97%
    03:00 +8°C° 0 mm 5 mps 746 mmHg 97%
    04:00 +8°C° 0 mm 5 mps 747 mmHg 97%
    05:00 +8°C° 0 mm 5 mps 747 mmHg 95%
    06:00 +8°C° 0 mm 4 mps 748 mmHg 93%
    07:00 +10°C° 0 mm 4 mps 748 mmHg 91%
    08:00 +12°C° 0 mm 4 mps 748 mmHg 78%
    09:00 +14°C° 0 mm 4 mps 749 mmHg 65%
    10:00 +17°C° 0 mm 4 mps 749 mmHg 52%
    11:00 +18°C° 0 mm 4 mps 749 mmHg 46%
    12:00 +19°C° 0 mm 4 mps 749 mmHg 39%
    13:00 +21°C° 0 mm 4 mps 749 mmHg 32%
    14:00 +21°C° 0 mm 4 mps 749 mmHg 32%
    15:00 +21°C° 0 mm 4 mps 749 mmHg 32%
    16:00 +21°C° 0 mm 4 mps 749 mmHg 32%
    17:00 +18°C° 0 mm 3 mps 749 mmHg 45%
    18:00 +16°C° 0 mm 3 mps 749 mmHg 57%
    19:00 +12°C° 0 mm 3 mps 749 mmHg 70%
    20:00 +12°C° 0 mm 2 mps 749 mmHg 78%
    21:00 +10°C° 0 mm 2 mps 750 mmHg 85%
    22:00 +9°C° 0 mm 2 mps 750 mmHg 93%
    23:00 +9°C° 0 mm 3 mps 750 mmHg 93%

    Day after tomorrow, 22 February, Wednesday

    Time Temperature Precipitation Wind Pressure Humidity
    00:00 +9°C° 0 mm 3 mps 749 mmHg 94%
    01:00 +9°C° 0 mm 3 mps 749 mmHg 95%
    02:00 +9°C° 0 mm 3 mps 748 mmHg 94%
    03:00 +9°C° 0 mm 3 mps 748 mmHg 94%
    04:00 +9°C° 0 mm 3 mps 747 mmHg 94%
    05:00 +10°C° 0 mm 4 mps 747 mmHg 87%
    06:00 +11°C° 0 mm 4 mps 747 mmHg 81%
    07:00 +12°C° 0 mm 4 mps 747 mmHg 74%
    08:00 +17°C° 0 mm 4 mps 746 mmHg 62%
    09:00 +20°C° 0 mm 4 mps 746 mmHg 49%
    10:00 +23°C° 0 mm 5 mps 745 mmHg 36%
    11:00 +26°C° 0 mm 5 mps 744 mmHg 34%
    12:00 +28°C° 0 mm 6 mps 743 mmHg 31%
    13:00 +29°C° 0 mm 7 mps 743 mmHg 28%
    14:00 +29°C° 0 mm 7 mps 742 mmHg 28%
    15:00 +29°C° 0 mm 8 mps 741 mmHg 28%
    16:00 +29°C° 0 mm 8 mps 740 mmHg 28%
    17:00 +27°C° 0 mm 8 mps 739 mmHg 32%
    18:00 +24°C° 0 mm 7 mps 739 mmHg 36%
    19:00 +22°C° 0 mm 6 mps 739 mmHg 40%
    20:00 +20°C° 0 mm 7 mps 739 mmHg 48%
    21:00 +18°C° 0 mm 8 mps 739 mmHg 56%
    22:00 +17°C° 0 mm 9 mps 740 mmHg 64%
    23:00 +16°C° 0 mm 10 mps 740 mmHg 65%

    23 February, Thursday

    Time Temperature Precipitation Wind Pressure Humidity
    00:00 +16°C° 0 mm 10 mps 741 mmHg 67%
    01:00 +14°C° 0 mm 11 mps 742 mmHg 69%
    02:00 +13°C° 0 mm 10 mps 743 mmHg 70%
    03:00 +12°C° 0 mm 9 mps 744 mmHg 70%
    04:00 +11°C° 0 mm 8 mps 746 mmHg 71%
    05:00 +11°C° 0 mm 7 mps 747 mmHg 70%
    06:00 +11°C° 0 mm 6 mps 748 mmHg 68%
    07:00 +10°C° 0 mm 5 mps 749 mmHg 67%
    08:00 +13°C° 0 mm 4 mps 749 mmHg 61%
    09:00 +14°C° 0 mm 4 mps 750 mmHg 55%
    10:00 +17°C° 0 mm 3 mps 751 mmHg 49%
    11:00 +19°C° 0 mm 3 mps 751 mmHg 44%
    12:00 +21°C° 0 mm 2 mps 751 mmHg 38%
    13:00 +24°C° 0 mm 2 mps 751 mmHg 33%
    14:00 +24°C° 0 mm 3 mps 751 mmHg 34%
    15:00 +24°C° 0 mm 3 mps 750 mmHg 35%
    16:00 +23°C° 0 mm 4 mps 750 mmHg 35%
    17:00 +20°C° 0 mm 4 mps 751 mmHg 48%
    18:00 +18°C° 0 mm 3 mps 751 mmHg 60%
    19:00 +14°C° 0 mm 3 mps 752 mmHg 72%
    20:00 +13°C° 0 mm 3 mps 752 mmHg 79%
    21:00 +11°C° 0 mm 3 mps 753 mmHg 86%
    22:00 +10°C° 0 mm 3 mps 753 mmHg 92%
    23:00 +10°C° 0 mm 2 mps 753 mmHg 93%

    24 February, Friday

    Time Temperature Precipitation Wind Pressure Humidity
    00:00 +9°C° 0 mm 2 mps 752 mmHg 93%
    01:00 +9°C° 0 mm 2 mps 752 mmHg 93%
    02:00 +8°C° 0 mm 2 mps 752 mmHg 93%
    03:00 +8°C° 0 mm 3 mps 752 mmHg 94%
    04:00 +8°C° 0 mm 3 mps 752 mmHg 94%
    05:00 +8°C° 0 mm 3 mps 752 mmHg 90%
    06:00 +9°C° 0 mm 3 mps 752 mmHg 87%
    07:00 +10°C° 0 mm 3 mps 753 mmHg 84%
    08:00 +12°C° 0 mm 3 mps 753 mmHg 76%
    09:00 +14°C° 0 mm 3 mps 753 mmHg 68%
    10:00 +17°C° 0 mm 4 mps 753 mmHg 60%
    11:00 +17°C° 0 mm 4 mps 753 mmHg 58%
    12:00 +18°C° 0 mm 4 mps 752 mmHg 57%
    13:00 +19°C° 0 mm 4 mps 752 mmHg 55%
    14:00 +19°C° 0 mm 4 mps 752 mmHg 55%
    15:00 +19°C° 0 mm 5 mps 752 mmHg 56%
    16:00 +17°C° 0 mm 5 mps 752 mmHg 56%
    17:00 +17°C° 0 mm 4 mps 752 mmHg 62%
    18:00 +15°C° 0 mm 4 mps 752 mmHg 69%
    19:00 +13°C° 0 mm 4 mps 752 mmHg 75%
    20:00 +12°C° 0.1 mm 4 mps 752 mmHg 80%
    21:00 +12°C° 0.1 mm 4 mps 753 mmHg 85%
    22:00 +11°C° 0.1 mm 4 mps 753 mmHg 89%
    23:00 +10°C° 0.2 mm 5 mps 753 mmHg 89%

    25 February, Saturday

    Time Temperature Precipitation Wind Pressure Humidity
    00:00 +10°C° 0.2 mm 5 mps 753 mmHg 89%
    01:00 +9°C° 0.2 mm 6 mps 753 mmHg 88%
    02:00 +8°C° 0 mm 6 mps 753 mmHg 90%
    03:00 +7°C° 0 mm 6 mps 753 mmHg 91%
    04:00 +6°C° 0 mm 5 mps 754 mmHg 93%
    05:00 +7°C° 0 mm 5 mps 754 mmHg 91%
    06:00 +7°C° 0 mm 5 mps 755 mmHg 88%
    07:00 +7°C° 0 mm 5 mps 755 mmHg 86%
    08:00 +9°C° 0.1 mm 5 mps 755 mmHg 77%
    09:00 +11°C° 0.1 mm 6 mps 756 mmHg 67%
    10:00 +14°C° 0.1 mm 6 mps 756 mmHg 57%
    11:00 +14°C° 0.1 mm 6 mps 756 mmHg 54%
    12:00 +15°C° 0.1 mm 6 mps 756 mmHg 51%
    13:00 +15°C° 0.1 mm 6 mps 756 mmHg 48%
    14:00 +15°C° 0 mm 6 mps 756 mmHg 47%
    15:00 +16°C° 0 mm 6 mps 756 mmHg 46%
    16:00 +16°C° 0 mm 5 mps 756 mmHg 45%
    17:00 +14°C° 0 mm 5 mps 756 mmHg 52%
    18:00 +12°C° 0 mm 5 mps 756 mmHg 60%
    19:00 +11°C° 0 mm 4 mps 756 mmHg 67%
    20:00 +8°C° 0 mm 4 mps 756 mmHg 75%
    21:00 +7°C° 0 mm 4 mps 757 mmHg 83%
    22:00 +5°C° 0 mm 3 mps 757 mmHg 91%
    23:00 +5°C° 0 mm 3 mps 756 mmHg 91%
    Show more